星链-37221(STARLINK-37221)

导读

STARLINK-37221(NORAD编号:68668)是美国SpaceX公司星链(Starlink)低轨互联网星座的组网卫星之一,作为星链计划的组成部分,它运行于近地轨道,承担天基互联网通信服务任务,旨在为全球提供高速低时延的互联接入。星链系统是目前全球规模最大的低轨星座,总规划规模近4.2万颗卫星。该卫星编入星座后,进一步扩展了星链的全球覆盖能力,支撑星座的通信容量和服务稳定性,服务包括民用互联网接入以及部分特殊领域的通信应用需求。

基本信息
目录编号:
68668
目录名称:
STARLINK-37221
国际标识:
2026-077G
轨道中心:
EARTH
卫星名称:
星链-37221
卫星全名:
星链-37221(STARLINK-37221)
卫星状态:
在轨 (已飞行155 天)
发射日期:
2026-04-11 UTC
国别 :
美国 (US)
星等 :
--
该卫星已列入 空间交会检测服务 Space Conjunction Data Service (SCDS) ,当前飞行风险评估等级: 无高风险
轨道信息
数据来源 国际轨道数据
星历时间: 2026-09-13T11:00:41+0800
10小时前
查看轨道信息
半长轴: 6843.665km
偏心率: 0.0002203
轨道倾角: 97.285°
近地点辐角 93.389°
升交点赤经 126.136°
平近点角 266.760°
近地点: 464.02km
远地点: 467.036km
周期: 93.906分钟
每日圈数: 15.334504
详细信息
固有亮度:
5
最大亮度:
2.5
卫星平台:
Starlink V1.0
覆盖范围:
全球
运营商:
太空探索技术公司
运营商所在国:
美国
制造商(研发单位):
太空探索技术公司
制造商所在国:
美国
使用方式:
暂无
卫星简介
Starlink 计划是 SpaceX 推出的全球卫星互联网项目,通过发射低轨道卫星,为全球尤其是偏远地区提供高速、低延迟的互联网服务。自 2019 年起,Starlink 已部署数千颗卫星,旨在缩小全球数字鸿沟,推动互联网普及。该项目还为军事、航空等行业提供通信支持,带来广泛经济效益。
2D轨道图
3D轨道图
轨道高度分析图
轨道倾角分析图
轨道综合分析图
查看轨道综合分析图
交会数据列表
事件ID 空间交会对象 最接近时刻(TCA) 交会距离 交会风险概率(CRP) 交会风险指数(CRI) 操作
CDM_260913-230904-763006-866821
2026-09-13T
23:09:03+0000
2.557 km
极远距离
1.590504E-6 低风险 0.39
CDM_260915-060404-859306-866821
2026-09-15T
06:04:19+0000
2.730 km
极远距离
1.490884E-6 低风险 0.38
CDM_260908-124504-607006-866822
2026-09-08T
12:45:43+0000
2.779 km
极远距离
1.453347E-6 低风险 0.38
CDM_260914-172104-866306-866822
2026-09-14T
17:21:14+0000
2.825 km
极远距离
1.443723E-6 低风险 0.38
CDM_260915-170606-533306-866821
2026-09-15T
17:06:02+0000
2.543 km
极远距离
1.421882E-6 低风险 0.38
CDM_260914-145404-831706-866821
2026-09-14T
14:54:45+0000
2.893 km
极远距离
1.389683E-6 低风险 0.38
与全量物体交会距离演化趋势
与全量物体交会风险概率演化趋势